Time,TemperatureF,DewpointF,PressureIn,WindDirection,WindDirectionDegrees,WindSpeedMPH,WindSpeedGustMPH,Humidity,HourlyPrecipIn,Conditions,Clouds,dailyrainin,SoftwareType,DateUTC
2013-05-24 00:02:00,44.2,35.7,30.25,East,94,0.0,3.0,72,0.00,,,0.00,Wunderground v.1.15,2013-05-24 05:02:00,
2013-05-24 00:08:00,42.7,35.0,30.25,East,94,0.0,3.0,74,0.00,,,0.00,Wunderground v.1.15,2013-05-24 05:08:00,
2013-05-24 00:13:00,42.2,35.2,30.25,East,94,0.0,0.0,76,0.00,,,0.00,Wunderground v.1.15,2013-05-24 05:13:00,
2013-05-24 00:19:00,42.7,36.0,30.25,East,94,5.0,7.0,77,0.00,,,0.00,Wunderground v.1.15,2013-05-24 05:19:00,
2013-05-24 00:24:00,42.9,36.2,30.25,East,94,5.0,5.0,77,0.00,,,0.00,Wunderground v.1.15,2013-05-24 05:24:00,
2013-05-24 00:29:00,42.7,35.7,30.25,East,94,5.0,6.0,76,0.00,,,0.00,Wunderground v.1.15,2013-05-24 05:29:00,
2013-05-24 00:34:00,42.3,35.3,30.25,East,94,3.0,5.0,76,0.00,,,0.00,Wunderground v.1.15,2013-05-24 05:34:00,
2013-05-24 00:39:00,42.4,36.0,30.25,East,94,3.0,5.0,78,0.00,,,0.00,Wunderground v.1.15,2013-05-24 05:39:00,
2013-05-24 00:44:00,43.0,36.6,30.25,East,94,5.0,6.0,78,0.00,,,0.00,Wunderground v.1.15,2013-05-24 05:44:00,
2013-05-24 00:49:00,43.2,36.5,30.25,East,94,0.0,6.0,77,0.00,,,0.00,Wunderground v.1.15,2013-05-24 05:49:00,
2013-05-24 00:54:00,43.1,36.4,30.25,East,94,0.0,3.0,77,0.00,,,0.00,Wunderground v.1.15,2013-05-24 05:54:00,
2013-05-24 00:59:00,42.7,36.0,30.26,East,94,0.0,3.0,77,0.00,,,0.00,Wunderground v.1.15,2013-05-24 05:59:00,
2013-05-24 01:04:00,42.0,35.3,30.26,East,94,0.0,0.0,77,0.00,,,0.00,Wunderground v.1.15,2013-05-24 06:04:00,
2013-05-24 01:10:00,41.6,35.6,30.26,East,94,0.0,0.0,79,0.00,,,0.00,Wunderground v.1.15,2013-05-24 06:10:00,
2013-05-24 01:15:00,41.5,36.1,30.26,East,94,0.0,0.0,81,0.00,,,0.00,Wunderground v.1.15,2013-05-24 06:15:00,
2013-05-24 01:20:00,41.5,36.1,30.26,East,94,0.0,0.0,81,0.00,,,0.00,Wunderground v.1.15,2013-05-24 06:20:00,
2013-05-24 01:25:00,40.9,34.9,30.26,East,94,0.0,0.0,79,0.00,,,0.00,Wunderground v.1.15,2013-05-24 06:25:00,
2013-05-24 01:31:00,39.3,33.3,30.27,East,94,0.0,0.0,79,0.00,,,0.00,Wunderground v.1.15,2013-05-24 06:31:00,
2013-05-24 01:36:00,38.6,33.3,30.27,East,94,0.0,0.0,81,0.00,,,0.00,Wunderground v.1.15,2013-05-24 06:36:00,
2013-05-24 01:42:00,38.1,33.1,30.27,East,94,0.0,0.0,82,0.00,,,0.00,Wunderground v.1.15,2013-05-24 06:42:00,
2013-05-24 01:47:00,37.8,32.8,30.27,East,94,0.0,0.0,82,0.00,,,0.00,Wunderground v.1.15,2013-05-24 06:47:00,
2013-05-24 01:52:00,37.3,32.6,30.26,East,94,0.0,0.0,83,0.00,,,0.00,Wunderground v.1.15,2013-05-24 06:52:00,
2013-05-24 01:57:00,37.6,33.2,30.26,East,94,0.0,0.0,84,0.00,,,0.00,Wunderground v.1.15,2013-05-24 06:57:00,
2013-05-24 02:02:00,38.8,35.0,30.26,East,94,0.0,0.0,86,0.00,,,0.00,Wunderground v.1.15,2013-05-24 07:02:00,
2013-05-24 02:07:00,39.5,35.4,30.26,East,94,0.0,0.0,85,0.00,,,0.00,Wunderground v.1.15,2013-05-24 07:07:00,
2013-05-24 02:12:00,39.9,35.8,30.26,East,94,0.0,0.0,85,0.00,,,0.00,Wunderground v.1.15,2013-05-24 07:12:00,
2013-05-24 02:17:00,39.6,35.2,30.26,East,94,0.0,0.0,84,0.00,,,0.00,Wunderground v.1.15,2013-05-24 07:17:00,
2013-05-24 02:22:00,39.3,34.9,30.27,East,94,0.0,0.0,84,0.00,,,0.00,Wunderground v.1.15,2013-05-24 07:22:00,
2013-05-24 02:27:00,39.3,35.2,30.27,East,94,0.0,0.0,85,0.00,,,0.00,Wunderground v.1.15,2013-05-24 07:27:00,
2013-05-24 02:32:00,39.8,35.7,30.26,East,94,0.0,0.0,85,0.00,,,0.00,Wunderground v.1.15,2013-05-24 07:32:00,
2013-05-24 02:37:00,39.8,35.4,30.27,East,94,0.0,0.0,84,0.00,,,0.00,Wunderground v.1.15,2013-05-24 07:37:00,
2013-05-24 02:42:00,39.7,35.0,30.27,East,94,0.0,0.0,83,0.00,,,0.00,Wunderground v.1.15,2013-05-24 07:42:00,
2013-05-24 02:47:00,39.7,35.3,30.27,East,94,0.0,0.0,84,0.00,,,0.00,Wunderground v.1.15,2013-05-24 07:47:00,
2013-05-24 02:52:00,39.7,35.3,30.27,East,94,0.0,0.0,84,0.00,,,0.00,Wunderground v.1.15,2013-05-24 07:52:00,
2013-05-24 02:57:00,39.8,35.4,30.27,East,94,0.0,0.0,84,0.00,,,0.00,Wunderground v.1.15,2013-05-24 07:57:00,
2013-05-24 03:02:00,39.9,35.2,30.26,East,94,0.0,0.0,83,0.00,,,0.00,Wunderground v.1.15,2013-05-24 08:02:00,
2013-05-24 03:07:00,39.4,34.7,30.26,East,94,0.0,0.0,83,0.00,,,0.00,Wunderground v.1.15,2013-05-24 08:07:00,
2013-05-24 03:12:00,39.0,34.3,30.26,East,94,0.0,0.0,83,0.00,,,0.00,Wunderground v.1.15,2013-05-24 08:12:00,
2013-05-24 03:17:00,38.9,34.2,30.26,East,94,0.0,0.0,83,0.00,,,0.00,Wunderground v.1.15,2013-05-24 08:17:00,
2013-05-24 03:22:00,39.3,34.9,30.26,East,94,1.0,1.0,84,0.00,,,0.00,Wunderground v.1.15,2013-05-24 08:22:00,
2013-05-24 03:27:00,39.7,35.3,30.26,East,94,0.0,1.0,84,0.00,,,0.00,Wunderground v.1.15,2013-05-24 08:27:00,
2013-05-24 03:32:00,39.7,35.3,30.26,East,94,0.0,0.0,84,0.00,,,0.00,Wunderground v.1.15,2013-05-24 08:32:00,
2013-05-24 03:37:00,39.7,35.3,30.26,East,94,0.0,0.0,84,0.00,,,0.00,Wunderground v.1.15,2013-05-24 08:37:00,
2013-05-24 03:42:00,39.7,35.3,30.26,East,94,0.0,0.0,84,0.00,,,0.00,Wunderground v.1.15,2013-05-24 08:42:00,
2013-05-24 03:47:00,39.5,34.8,30.26,East,94,0.0,0.0,83,0.00,,,0.00,Wunderground v.1.15,2013-05-24 08:47:00,
2013-05-24 03:52:00,39.3,34.9,30.26,East,94,0.0,0.0,84,0.00,,,0.00,Wunderground v.1.15,2013-05-24 08:52:00,
2013-05-24 03:57:00,39.2,34.8,30.26,East,94,0.0,0.0,84,0.00,,,0.00,Wunderground v.1.15,2013-05-24 08:57:00,
2013-05-24 04:02:00,39.8,35.4,30.26,East,94,0.0,2.0,84,0.00,,,0.00,Wunderground v.1.15,2013-05-24 09:02:00,
2013-05-24 04:07:00,39.7,35.0,30.26,East,94,0.0,2.0,83,0.00,,,0.00,Wunderground v.1.15,2013-05-24 09:07:00,
2013-05-24 04:12:00,39.6,34.9,30.26,East,94,0.0,0.0,83,0.00,,,0.00,Wunderground v.1.15,2013-05-24 09:12:00,
2013-05-24 04:17:00,39.5,34.8,30.26,East,94,0.0,2.0,83,0.00,,,0.00,Wunderground v.1.15,2013-05-24 09:17:00,
2013-05-24 04:23:00,40.0,35.6,30.26,East,94,2.0,3.0,84,0.00,,,0.00,Wunderground v.1.15,2013-05-24 09:23:00,
2013-05-24 04:28:00,40.6,36.1,30.26,East,94,2.0,3.0,84,0.00,,,0.00,Wunderground v.1.15,2013-05-24 09:28:00,
2013-05-24 04:33:00,41.0,36.2,30.25,East,94,2.0,5.0,83,0.00,,,0.00,Wunderground v.1.15,2013-05-24 09:33:00,
2013-05-24 04:38:00,41.5,36.7,30.25,East,94,5.0,5.0,83,0.00,,,0.00,Wunderground v.1.15,2013-05-24 09:38:00,
2013-05-24 04:43:00,42.3,37.2,30.25,East,94,3.0,5.0,82,0.00,,,0.00,Wunderground v.1.15,2013-05-24 09:43:00,
2013-05-24 04:48:00,42.6,37.5,30.26,East,94,3.0,5.0,82,0.00,,,0.00,Wunderground v.1.15,2013-05-24 09:48:00,
2013-05-24 04:53:00,42.5,36.8,30.26,East,94,2.0,5.0,80,0.00,,,0.00,Wunderground v.1.15,2013-05-24 09:53:00,
2013-05-24 04:58:00,42.0,36.3,30.26,East,94,5.0,5.0,80,0.00,,,0.00,Wunderground v.1.15,2013-05-24 09:58:00,
2013-05-24 05:03:00,41.8,36.1,30.26,East,94,3.0,5.0,80,0.00,,,0.00,Wunderground v.1.15,2013-05-24 10:03:00,
2013-05-24 05:08:00,41.6,36.2,30.26,East,94,1.0,5.0,81,0.00,,,0.00,Wunderground v.1.15,2013-05-24 10:08:00,
2013-05-24 05:13:00,41.3,35.9,30.25,East,94,1.0,2.0,81,0.00,,,0.00,Wunderground v.1.15,2013-05-24 10:13:00,
2013-05-24 05:18:00,40.9,35.5,30.25,East,94,2.0,3.0,81,0.00,,,0.00,Wunderground v.1.15,2013-05-24 10:18:00,
2013-05-24 05:23:00,40.6,35.5,30.25,East,94,2.0,3.0,82,0.00,,,0.00,Wunderground v.1.15,2013-05-24 10:23:00,
2013-05-24 05:28:00,40.6,35.5,30.25,East,94,2.0,3.0,82,0.00,,,0.00,Wunderground v.1.15,2013-05-24 10:28:00,
2013-05-24 05:33:00,41.1,36.3,30.25,East,94,1.0,3.0,83,0.00,,,0.00,Wunderground v.1.15,2013-05-24 10:33:00,
2013-05-24 05:38:00,41.1,36.3,30.25,East,94,2.0,3.0,83,0.00,,,0.00,Wunderground v.1.15,2013-05-24 10:38:00,
2013-05-24 05:43:00,41.3,36.5,30.25,East,94,3.0,3.0,83,0.00,,,0.00,Wunderground v.1.15,2013-05-24 10:43:00,
2013-05-24 05:48:00,41.4,36.3,30.25,ESE,117,2.0,5.0,82,0.00,,,0.00,Wunderground v.1.15,2013-05-24 10:48:00,
2013-05-24 05:53:00,41.7,36.6,30.26,ESE,115,3.0,4.0,82,0.00,,,0.00,Wunderground v.1.15,2013-05-24 10:53:00,
2013-05-24 05:58:00,41.8,36.4,30.26,SE,126,1.0,4.0,81,0.00,,,0.00,Wunderground v.1.15,2013-05-24 10:58:00,
2013-05-24 06:03:00,42.1,36.7,30.26,South,190,3.0,4.0,81,0.00,,,0.00,Wunderground v.1.15,2013-05-24 11:03:00,
2013-05-24 06:08:00,42.5,37.1,30.26,SSE,165,4.0,5.0,81,0.00,,,0.00,Wunderground v.1.15,2013-05-24 11:08:00,
2013-05-24 06:13:00,42.7,37.0,30.26,SSE,157,4.0,5.0,80,0.00,,,0.00,Wunderground v.1.15,2013-05-24 11:13:00,
2013-05-24 06:18:00,43.2,37.1,30.26,SE,138,5.0,7.0,79,0.00,,,0.00,Wunderground v.1.15,2013-05-24 11:18:00,
2013-05-24 06:23:00,43.7,37.6,30.26,ESE,113,2.0,5.0,79,0.00,,,0.00,Wunderground v.1.15,2013-05-24 11:23:00,
2013-05-24 06:28:00,44.1,37.7,30.26,ESE,119,4.0,8.0,78,0.00,,,0.00,Wunderground v.1.15,2013-05-24 11:28:00,
2013-05-24 06:33:00,44.5,37.7,30.27,ESE,123,5.0,9.0,77,0.00,,,0.00,Wunderground v.1.15,2013-05-24 11:33:00,
2013-05-24 06:38:00,45.0,37.9,30.27,ESE,121,5.0,9.0,76,0.00,,,0.00,Wunderground v.1.15,2013-05-24 11:38:00,
2013-05-24 06:43:00,45.2,38.1,30.27,SE,129,6.0,7.0,76,0.00,,,0.00,Wunderground v.1.15,2013-05-24 11:43:00,
2013-05-24 06:48:00,45.6,37.8,30.27,SE,128,7.0,10.0,74,0.00,,,0.00,Wunderground v.1.15,2013-05-24 11:48:00,
2013-05-24 06:53:00,45.9,38.1,30.27,SE,125,8.0,9.0,74,0.00,,,0.00,Wunderground v.1.15,2013-05-24 11:53:00,
2013-05-24 06:58:00,46.4,37.9,30.28,SE,125,8.0,13.0,72,0.00,,,0.00,Wunderground v.1.15,2013-05-24 11:58:00,
2013-05-24 07:03:00,46.8,38.2,30.28,ESE,120,10.0,12.0,72,0.00,,,0.00,Wunderground v.1.15,2013-05-24 12:03:00,
2013-05-24 07:08:00,47.1,38.2,30.27,SE,126,10.0,12.0,71,0.00,,,0.00,Wunderground v.1.15,2013-05-24 12:08:00,
2013-05-24 07:14:00,47.7,38.4,30.27,SE,130,9.0,10.0,70,0.00,,,0.00,Wunderground v.1.15,2013-05-24 12:14:00,
2013-05-24 07:19:00,48.1,38.4,30.27,SE,130,4.0,12.0,69,0.00,,,0.00,Wunderground v.1.15,2013-05-24 12:19:00,
2013-05-24 07:24:00,48.4,38.7,30.26,ESE,118,9.0,13.0,69,0.00,,,0.00,Wunderground v.1.15,2013-05-24 12:24:00,
2013-05-24 07:29:00,48.6,38.5,30.26,SE,126,6.0,13.0,68,0.00,,,0.00,Wunderground v.1.15,2013-05-24 12:29:00,
2013-05-24 07:34:00,48.5,38.4,30.27,SE,125,6.0,12.0,68,0.00,,,0.00,Wunderground v.1.15,2013-05-24 12:34:00,
2013-05-24 07:39:00,49.1,39.0,30.27,SE,140,8.0,12.0,68,0.00,,,0.00,Wunderground v.1.15,2013-05-24 12:39:00,
2013-05-24 07:44:00,49.9,38.6,30.27,SE,142,11.0,14.0,65,0.00,,,0.00,Wunderground v.1.15,2013-05-24 12:44:00,
2013-05-24 07:49:00,50.3,39.0,30.27,SE,140,6.0,15.0,65,0.00,,,0.00,Wunderground v.1.15,2013-05-24 12:49:00,
2013-05-24 07:54:00,50.7,39.0,30.27,SE,132,11.0,12.0,64,0.00,,,0.00,Wunderground v.1.15,2013-05-24 12:54:00,
2013-05-24 07:59:00,51.0,38.8,30.26,SE,136,11.0,15.0,63,0.00,,,0.00,Wunderground v.1.15,2013-05-24 12:59:00,
2013-05-24 08:04:00,51.6,39.0,30.27,SE,135,13.0,14.0,62,0.00,,,0.00,Wunderground v.1.15,2013-05-24 13:04:00,
2013-05-24 08:09:00,51.9,39.3,30.27,SSE,163,8.0,14.0,62,0.00,,,0.00,Wunderground v.1.15,2013-05-24 13:09:00,
2013-05-24 08:14:00,52.4,39.3,30.27,SE,132,9.0,13.0,61,0.00,,,0.00,Wunderground v.1.15,2013-05-24 13:14:00,
2013-05-24 08:19:00,52.8,38.9,30.27,SE,146,11.0,17.0,59,0.00,,,0.00,Wunderground v.1.15,2013-05-24 13:19:00,
2013-05-24 08:24:00,53.2,39.7,30.27,SE,144,8.0,14.0,60,0.00,,,0.00,Wunderground v.1.15,2013-05-24 13:24:00,
2013-05-24 08:29:00,53.6,39.6,30.27,SSE,150,8.0,14.0,59,0.00,,,0.00,Wunderground v.1.15,2013-05-24 13:29:00,
2013-05-24 08:34:00,53.8,39.8,30.27,SE,142,5.0,18.0,59,0.00,,,0.00,Wunderground v.1.15,2013-05-24 13:34:00,
2013-05-24 08:39:00,54.1,39.6,30.27,SSE,149,11.0,18.0,58,0.00,,,0.00,Wunderground v.1.15,2013-05-24 13:39:00,
2013-05-24 08:44:00,54.8,40.3,30.27,SSE,155,13.0,16.0,58,0.00,,,0.00,Wunderground v.1.15,2013-05-24 13:44:00,
2013-05-24 08:49:00,54.9,39.9,30.27,SE,144,11.0,11.0,57,0.00,,,0.00,Wunderground v.1.15,2013-05-24 13:49:00,
2013-05-24 08:54:00,55.4,40.4,30.27,SSE,155,11.0,16.0,57,0.00,,,0.00,Wunderground v.1.15,2013-05-24 13:54:00,
2013-05-24 08:59:00,55.9,40.4,30.27,SSE,159,15.0,15.0,56,0.00,,,0.00,Wunderground v.1.15,2013-05-24 13:59:00,
2013-05-24 09:04:00,55.9,40.0,30.27,SSE,148,11.0,17.0,55,0.00,,,0.00,Wunderground v.1.15,2013-05-24 14:04:00,
2013-05-24 09:10:00,56.6,40.6,30.27,SSE,160,16.0,16.0,55,0.00,,,0.00,Wunderground v.1.15,2013-05-24 14:10:00,
2013-05-24 09:15:00,56.9,40.4,30.27,SE,143,5.0,20.0,54,0.00,,,0.00,Wunderground v.1.15,2013-05-24 14:15:00,
2013-05-24 09:19:00,57.3,41.7,30.27,SE,138,17.0,17.0,56,0.00,,,0.00,Wunderground v.1.15,2013-05-24 14:19:00,
2013-05-24 09:25:00,57.5,41.4,30.27,SSE,150,9.0,19.0,55,0.00,,,0.00,Wunderground v.1.15,2013-05-24 14:25:00,
2013-05-24 09:30:00,57.7,40.7,30.26,SE,136,11.0,13.0,53,0.00,,,0.00,Wunderground v.1.15,2013-05-24 14:30:00,
2013-05-24 09:35:00,58.1,41.5,30.26,SE,138,13.0,18.0,54,0.00,,,0.00,Wunderground v.1.15,2013-05-24 14:35:00,
2013-05-24 09:40:00,58.4,40.3,30.27,South,184,16.0,16.0,51,0.00,,,0.00,Wunderground v.1.15,2013-05-24 14:40:00,
2013-05-24 09:45:00,59.0,42.4,30.27,SE,143,12.0,18.0,54,0.00,,,0.00,Wunderground v.1.15,2013-05-24 14:45:00,
2013-05-24 09:50:00,59.0,41.4,30.26,SSE,152,15.0,18.0,52,0.00,,,0.00,Wunderground v.1.15,2013-05-24 14:50:00,
2013-05-24 09:55:00,59.0,41.4,30.26,SSE,147,20.0,20.0,52,0.00,,,0.00,Wunderground v.1.15,2013-05-24 14:55:00,
2013-05-24 10:00:00,60.0,42.3,30.26,South,171,9.0,13.0,52,0.00,,,0.00,Wunderground v.1.15,2013-05-24 15:00:00,
2013-05-24 10:06:00,59.9,42.2,30.26,South,169,13.0,19.0,52,0.00,,,0.00,Wunderground v.1.15,2013-05-24 15:06:00,
2013-05-24 10:11:00,60.5,43.3,30.25,SE,144,8.0,15.0,53,0.00,,,0.00,Wunderground v.1.15,2013-05-24 15:11:00,
2013-05-24 10:16:00,60.6,42.9,30.25,SE,142,9.0,24.0,52,0.00,,,0.00,Wunderground v.1.15,2013-05-24 15:16:00,
2013-05-24 10:21:00,60.6,42.9,30.25,SSE,155,10.0,18.0,52,0.00,,,0.00,Wunderground v.1.15,2013-05-24 15:21:00,
2013-05-24 10:26:00,60.8,42.5,30.25,South,183,14.0,20.0,51,0.00,,,0.00,Wunderground v.1.15,2013-05-24 15:26:00,
2013-05-24 10:31:00,61.2,42.9,30.24,South,171,15.0,20.0,51,0.00,,,0.00,Wunderground v.1.15,2013-05-24 15:31:00,
2013-05-24 10:36:00,60.9,42.6,30.24,SSE,150,14.0,20.0,51,0.00,,,0.00,Wunderground v.1.15,2013-05-24 15:36:00,
2013-05-24 10:41:00,61.3,43.0,30.24,SSE,156,12.0,14.0,51,0.00,,,0.00,Wunderground v.1.15,2013-05-24 15:41:00,
2013-05-24 10:46:00,62.0,42.1,30.24,SSE,160,17.0,20.0,48,0.00,,,0.00,Wunderground v.1.15,2013-05-24 15:46:00,
2013-05-24 10:51:00,61.9,43.6,30.24,SSE,150,18.0,19.0,51,0.00,,,0.00,Wunderground v.1.15,2013-05-24 15:51:00,
2013-05-24 10:56:00,61.9,42.0,30.24,SSE,149,17.0,19.0,48,0.00,,,0.00,Wunderground v.1.15,2013-05-24 15:56:00,
2013-05-24 11:01:00,62.3,43.4,30.23,South,172,15.0,16.0,50,0.00,,,0.00,Wunderground v.1.15,2013-05-24 16:01:00,
2013-05-24 11:06:00,63.1,43.6,30.23,South,173,9.0,19.0,49,0.00,,,0.00,Wunderground v.1.15,2013-05-24 16:06:00,
2013-05-24 11:11:00,62.9,43.4,30.23,SSE,156,18.0,21.0,49,0.00,,,0.00,Wunderground v.1.15,2013-05-24 16:11:00,
2013-05-24 11:16:00,63.4,43.9,30.23,SSE,168,14.0,21.0,49,0.00,,,0.00,Wunderground v.1.15,2013-05-24 16:16:00,
2013-05-24 11:21:00,63.5,43.4,30.22,SSE,153,7.0,15.0,48,0.00,,,0.00,Wunderground v.1.15,2013-05-24 16:21:00,
2013-05-24 11:26:00,63.7,42.5,30.22,SSE,148,12.0,22.0,46,0.00,,,0.00,Wunderground v.1.15,2013-05-24 16:26:00,
2013-05-24 11:31:00,63.3,43.8,30.21,SSE,149,7.0,13.0,49,0.00,,,0.00,Wunderground v.1.15,2013-05-24 16:31:00,
2013-05-24 11:36:00,63.2,43.2,30.21,South,171,11.0,17.0,48,0.00,,,0.00,Wunderground v.1.15,2013-05-24 16:36:00,
2013-05-24 11:41:00,63.5,42.9,30.21,SE,146,11.0,20.0,47,0.00,,,0.00,Wunderground v.1.15,2013-05-24 16:41:00,
2013-05-24 11:46:00,62.4,43.0,30.22,South,173,9.0,20.0,49,0.00,,,0.00,Wunderground v.1.15,2013-05-24 16:46:00,
2013-05-24 11:51:00,64.3,45.8,30.22,SSE,148,14.0,15.0,51,0.00,,,0.00,Wunderground v.1.15,2013-05-24 16:51:00,
2013-05-24 11:56:00,64.6,44.5,30.22,SSE,155,17.0,20.0,48,0.00,,,0.00,Wunderground v.1.15,2013-05-24 16:56:00,
2013-05-24 12:01:00,65.0,44.8,30.21,SE,144,13.0,15.0,48,0.00,,,0.00,Wunderground v.1.15,2013-05-24 17:01:00,
2013-05-24 12:07:00,65.0,43.7,30.21,SSE,157,11.0,18.0,46,0.00,,,0.00,Wunderground v.1.15,2013-05-24 17:07:00,
2013-05-24 12:12:00,65.2,43.3,30.20,SSE,156,12.0,22.0,45,0.00,,,0.00,Wunderground v.1.15,2013-05-24 17:12:00,
2013-05-24 12:17:00,65.3,44.5,30.20,SE,144,11.0,22.0,47,0.00,,,0.00,Wunderground v.1.15,2013-05-24 17:17:00,
2013-05-24 12:22:00,65.1,43.2,30.20,SSE,163,13.0,19.0,45,0.00,,,0.00,Wunderground v.1.15,2013-05-24 17:22:00,
2013-05-24 12:27:00,65.3,43.4,30.20,SSE,149,14.0,23.0,45,0.00,,,0.00,Wunderground v.1.15,2013-05-24 17:27:00,
2013-05-24 12:32:00,65.8,43.9,30.19,South,174,13.0,19.0,45,0.00,,,0.00,Wunderground v.1.15,2013-05-24 17:32:00,
2013-05-24 12:37:00,66.1,44.7,30.20,SSE,160,16.0,19.0,46,0.00,,,0.00,Wunderground v.1.15,2013-05-24 17:37:00,
2013-05-24 12:42:00,66.5,44.5,30.19,SSE,159,16.0,18.0,45,0.00,,,0.00,Wunderground v.1.15,2013-05-24 17:42:00,
2013-05-24 12:47:00,66.8,44.2,30.19,SSE,159,16.0,20.0,44,0.00,,,0.00,Wunderground v.1.15,2013-05-24 17:47:00,
2013-05-24 12:52:00,66.6,44.6,30.19,SSE,153,16.0,21.0,45,0.00,,,0.00,Wunderground v.1.15,2013-05-24 17:52:00,
2013-05-24 12:57:00,66.8,43.6,30.18,SSE,154,13.0,21.0,43,0.00,,,0.00,Wunderground v.1.15,2013-05-24 17:57:00,
2013-05-24 13:02:00,66.8,44.8,30.18,SSE,154,16.0,19.0,45,0.00,,,0.00,Wunderground v.1.15,2013-05-24 18:02:00,
2013-05-24 13:07:00,67.1,44.4,30.18,SE,146,14.0,24.0,44,0.00,,,0.00,Wunderground v.1.15,2013-05-24 18:07:00,
2013-05-24 13:12:00,67.4,44.7,30.18,South,176,15.0,20.0,44,0.00,,,0.00,Wunderground v.1.15,2013-05-24 18:12:00,
2013-05-24 13:17:00,67.1,43.2,30.17,South,177,16.0,20.0,42,0.00,,,0.00,Wunderground v.1.15,2013-05-24 18:17:00,
2013-05-24 13:22:00,67.3,45.2,30.17,SE,134,9.0,17.0,45,0.00,,,0.00,Wunderground v.1.15,2013-05-24 18:22:00,
2013-05-24 13:27:00,67.8,43.9,30.17,SSE,167,11.0,21.0,42,0.00,,,0.00,Wunderground v.1.15,2013-05-24 18:27:00,
2013-05-24 13:32:00,68.5,43.9,30.16,SSE,165,20.0,20.0,41,0.00,,,0.00,Wunderground v.1.15,2013-05-24 18:32:00,
2013-05-24 13:37:00,67.7,45.0,30.16,South,169,13.0,21.0,44,0.00,,,0.00,Wunderground v.1.15,2013-05-24 18:37:00,
2013-05-24 13:42:00,67.9,43.3,30.16,SE,135,16.0,25.0,41,0.00,,,0.00,Wunderground v.1.15,2013-05-24 18:42:00,
2013-05-24 13:47:00,68.8,45.4,30.15,SE,141,18.0,25.0,43,0.00,,,0.00,Wunderground v.1.15,2013-05-24 18:47:00,
2013-05-24 13:52:00,69.0,44.9,30.16,SSE,168,7.0,19.0,42,0.00,,,0.00,Wunderground v.1.15,2013-05-24 18:52:00,
2013-05-24 13:57:00,68.9,43.6,30.15,SSE,154,16.0,23.0,40,0.00,,,0.00,Wunderground v.1.15,2013-05-24 18:57:00,
2013-05-24 14:02:00,69.3,45.2,30.14,SSE,157,15.0,16.0,42,0.00,,,0.00,Wunderground v.1.15,2013-05-24 19:02:00,
2013-05-24 14:07:00,69.2,45.1,30.14,SSE,160,9.0,25.0,42,0.00,,,0.00,Wunderground v.1.15,2013-05-24 19:07:00,
2013-05-24 14:12:00,68.6,45.2,30.15,SSE,159,16.0,27.0,43,0.00,,,0.00,Wunderground v.1.15,2013-05-24 19:12:00,
2013-05-24 14:18:00,70.1,45.3,30.14,SSE,164,21.0,27.0,41,0.00,,,0.00,Wunderground v.1.15,2013-05-24 19:18:00,
2013-05-24 14:22:00,70.1,45.3,30.15,SSE,167,16.0,22.0,41,0.00,,,0.00,Wunderground v.1.15,2013-05-24 19:22:00,
2013-05-24 14:28:00,69.5,46.0,30.14,SSE,167,19.0,22.0,43,0.00,,,0.00,Wunderground v.1.15,2013-05-24 19:28:00,
2013-05-24 14:33:00,70.1,44.6,30.14,South,183,16.0,22.0,40,0.00,,,0.00,Wunderground v.1.15,2013-05-24 19:33:00,
2013-05-24 14:38:00,70.1,45.3,30.14,South,171,14.0,25.0,41,0.00,,,0.00,Wunderground v.1.15,2013-05-24 19:38:00,
2013-05-24 14:43:00,69.9,42.4,30.14,South,186,11.0,20.0,37,0.00,,,0.00,Wunderground v.1.15,2013-05-24 19:43:00,
2013-05-24 14:48:00,69.9,44.5,30.13,SSE,164,14.0,20.0,40,0.00,,,0.00,Wunderground v.1.15,2013-05-24 19:48:00,
2013-05-24 14:53:00,70.7,45.2,30.13,SSE,159,12.0,25.0,40,0.00,,,0.00,Wunderground v.1.15,2013-05-24 19:53:00,
2013-05-24 14:58:00,70.3,45.5,30.13,South,179,11.0,25.0,41,0.00,,,0.00,Wunderground v.1.15,2013-05-24 19:58:00,
2013-05-24 15:03:00,69.7,44.3,30.13,SSE,159,14.0,19.0,40,0.00,,,0.00,Wunderground v.1.15,2013-05-24 20:03:00,
2013-05-24 15:08:00,68.6,43.3,30.12,South,184,7.0,19.0,40,0.00,,,0.00,Wunderground v.1.15,2013-05-24 20:08:00,
2013-05-24 15:13:00,68.3,44.3,30.11,SSE,165,14.0,20.0,42,0.00,,,0.00,Wunderground v.1.15,2013-05-24 20:13:00,
2013-05-24 15:18:00,68.5,43.9,30.12,South,180,11.0,20.0,41,0.00,,,0.00,Wunderground v.1.15,2013-05-24 20:18:00,
2013-05-24 15:23:00,68.8,44.8,30.11,SSE,164,11.0,21.0,42,0.00,,,0.00,Wunderground v.1.15,2013-05-24 20:23:00,
2013-05-24 15:28:00,70.0,45.8,30.11,SSE,163,10.0,21.0,42,0.00,,,0.00,Wunderground v.1.15,2013-05-24 20:28:00,
2013-05-24 15:33:00,71.2,46.9,30.11,SSE,159,19.0,20.0,42,0.00,,,0.00,Wunderground v.1.15,2013-05-24 20:33:00,
2013-05-24 15:38:00,70.7,45.8,30.10,South,183,16.0,21.0,41,0.00,,,0.00,Wunderground v.1.15,2013-05-24 20:38:00,
2013-05-24 15:43:00,71.3,47.0,30.10,SSE,168,17.0,25.0,42,0.00,,,0.00,Wunderground v.1.15,2013-05-24 20:43:00,
2013-05-24 15:48:00,70.9,46.7,30.09,SSE,165,11.0,25.0,42,0.00,,,0.00,Wunderground v.1.15,2013-05-24 20:48:00,
2013-05-24 15:53:00,70.7,46.5,30.09,SSE,155,25.0,25.0,42,0.00,,,0.00,Wunderground v.1.15,2013-05-24 20:53:00,
2013-05-24 15:58:00,70.4,46.8,30.09,South,170,19.0,25.0,43,0.00,,,0.00,Wunderground v.1.15,2013-05-24 20:58:00,
2013-05-24 16:04:00,70.3,46.7,30.09,SSE,156,18.0,26.0,43,0.00,,,0.00,Wunderground v.1.15,2013-05-24 21:04:00,
2013-05-24 16:09:00,69.9,47.0,30.09,SSE,161,14.0,26.0,44,0.00,,,0.00,Wunderground v.1.15,2013-05-24 21:09:00,
2013-05-24 16:14:00,70.1,47.2,30.08,SSE,157,15.0,18.0,44,0.00,,,0.00,Wunderground v.1.15,2013-05-24 21:14:00,
2013-05-24 16:19:00,69.7,47.4,30.08,SSE,157,10.0,19.0,45,0.00,,,0.00,Wunderground v.1.15,2013-05-24 21:19:00,
2013-05-24 16:24:00,69.7,47.4,30.08,SSE,161,10.0,24.0,45,0.00,,,0.00,Wunderground v.1.15,2013-05-24 21:24:00,
2013-05-24 16:29:00,69.8,47.5,30.07,SSE,155,19.0,24.0,45,0.00,,,0.00,Wunderground v.1.15,2013-05-24 21:29:00,
2013-05-24 16:34:00,69.9,47.6,30.07,SSE,157,21.0,21.0,45,0.00,,,0.00,Wunderground v.1.15,2013-05-24 21:34:00,
2013-05-24 16:39:00,69.8,47.5,30.07,South,176,20.0,23.0,45,0.00,,,0.00,Wunderground v.1.15,2013-05-24 21:39:00,
2013-05-24 16:44:00,69.8,47.5,30.07,SSE,152,10.0,20.0,45,0.00,,,0.00,Wunderground v.1.15,2013-05-24 21:44:00,
2013-05-24 16:49:00,69.7,46.8,30.09,SSE,168,13.0,20.0,44,0.00,,,0.00,Wunderground v.1.15,2013-05-24 21:49:00,
2013-05-24 16:54:00,69.6,46.1,30.12,SW,219,9.0,14.0,43,0.00,,,0.00,Wunderground v.1.15,2013-05-24 21:54:00,
2013-05-24 16:59:00,69.4,46.5,30.15,SW,232,8.0,14.0,44,0.00,,,0.00,Wunderground v.1.15,2013-05-24 21:59:00,
2013-05-24 17:04:00,69.2,46.4,30.15,SW,226,6.0,10.0,44,0.00,,,0.00,Wunderground v.1.15,2013-05-24 22:04:00,
2013-05-24 17:09:00,68.8,47.2,30.14,SSW,196,7.0,7.0,46,0.00,,,0.00,Wunderground v.1.15,2013-05-24 22:09:00,
2013-05-24 17:14:00,67.1,49.9,30.13,South,189,3.0,7.0,54,0.38,,,0.04,Wunderground v.1.15,2013-05-24 22:14:00,
2013-05-24 17:19:00,64.8,51.5,30.13,South,188,2.0,5.0,62,0.19,,,0.06,Wunderground v.1.15,2013-05-24 22:19:00,
2013-05-24 17:24:00,62.5,51.0,30.12,South,180,3.0,6.0,66,0.23,,,0.08,Wunderground v.1.15,2013-05-24 22:24:00,
2013-05-24 17:30:00,61.2,50.9,30.11,SSE,153,4.0,4.0,69,0.09,,,0.08,Wunderground v.1.15,2013-05-24 22:30:00,
2013-05-24 17:36:00,61.1,51.2,30.11,SE,134,5.0,9.0,70,0.05,,,0.08,Wunderground v.1.15,2013-05-24 22:36:00,
2013-05-24 17:41:00,61.1,52.0,30.09,SE,129,8.0,8.0,72,0.00,,,0.08,Wunderground v.1.15,2013-05-24 22:41:00,
2013-05-24 17:46:00,61.4,51.9,30.09,ESE,117,13.0,13.0,71,0.00,,,0.08,Wunderground v.1.15,2013-05-24 22:46:00,
2013-05-24 17:51:00,61.7,51.8,30.09,ESE,117,9.0,10.0,70,0.00,,,0.08,Wunderground v.1.15,2013-05-24 22:51:00,
2013-05-24 17:56:00,61.4,51.9,30.09,ESE,115,10.0,12.0,71,0.00,,,0.08,Wunderground v.1.15,2013-05-24 22:56:00,
2013-05-24 18:01:00,61.3,52.2,30.08,ESE,117,7.0,11.0,72,0.00,,,0.08,Wunderground v.1.15,2013-05-24 23:01:00,
2013-05-24 18:06:00,61.3,52.6,30.08,SE,132,6.0,11.0,73,0.00,,,0.08,Wunderground v.1.15,2013-05-24 23:06:00,
2013-05-24 18:11:00,61.4,53.0,30.08,SE,130,9.0,11.0,74,0.00,,,0.08,Wunderground v.1.15,2013-05-24 23:11:00,
2013-05-24 18:16:00,61.1,53.5,30.08,SE,130,6.0,11.0,76,0.00,,,0.08,Wunderground v.1.15,2013-05-24 23:16:00,
2013-05-24 18:21:00,61.2,52.8,30.08,SE,125,5.0,10.0,74,0.00,,,0.09,Wunderground v.1.15,2013-05-24 23:21:00,
2013-05-24 18:26:00,61.0,52.3,30.08,ESE,117,7.0,11.0,73,0.00,,,0.09,Wunderground v.1.15,2013-05-24 23:26:00,
2013-05-24 18:31:00,60.9,52.2,30.08,ESE,114,7.0,10.0,73,0.00,,,0.09,Wunderground v.1.15,2013-05-24 23:31:00,
2013-05-24 18:36:00,60.7,52.0,30.08,ESE,113,8.0,11.0,73,0.00,,,0.09,Wunderground v.1.15,2013-05-24 23:36:00,
2013-05-24 18:42:00,60.5,51.8,30.08,ESE,109,7.0,10.0,73,0.00,,,0.09,Wunderground v.1.15,2013-05-24 23:42:00,
2013-05-24 18:47:00,60.4,51.7,30.08,ESE,109,9.0,13.0,73,0.00,,,0.09,Wunderground v.1.15,2013-05-24 23:47:00,
2013-05-24 18:51:00,60.4,51.7,30.08,ESE,110,10.0,10.0,73,0.00,,,0.09,Wunderground v.1.15,2013-05-24 23:51:00,
2013-05-24 18:57:00,60.5,51.8,30.07,ESE,114,8.0,13.0,73,0.00,,,0.09,Wunderground v.1.15,2013-05-24 23:57:00,
2013-05-24 19:02:00,60.5,51.4,30.08,ESE,114,8.0,12.0,72,0.00,,,0.09,Wunderground v.1.15,2013-05-25 00:02:00,
2013-05-24 19:07:00,60.7,51.6,30.07,ESE,111,8.0,13.0,72,0.00,,,0.09,Wunderground v.1.15,2013-05-25 00:07:00,
2013-05-24 19:12:00,60.8,51.7,30.07,ESE,111,9.0,12.0,72,0.00,,,0.09,Wunderground v.1.15,2013-05-25 00:12:00,
2013-05-24 19:17:00,60.8,51.7,30.07,ESE,113,10.0,12.0,72,0.00,,,0.09,Wunderground v.1.15,2013-05-25 00:17:00,
2013-05-24 19:22:00,60.8,51.7,30.07,ESE,117,12.0,12.0,72,0.00,,,0.09,Wunderground v.1.15,2013-05-25 00:22:00,
2013-05-24 19:27:00,60.7,52.0,30.07,ESE,114,10.0,14.0,73,0.00,,,0.09,Wunderground v.1.15,2013-05-25 00:27:00,
2013-05-24 19:32:00,60.9,51.8,30.08,ESE,120,8.0,14.0,72,0.00,,,0.09,Wunderground v.1.15,2013-05-25 00:32:00,
2013-05-24 19:37:00,60.9,51.8,30.07,ESE,119,10.0,16.0,72,0.00,,,0.09,Wunderground v.1.15,2013-05-25 00:37:00,
2013-05-24 19:42:00,60.9,51.8,30.07,ESE,117,11.0,12.0,72,0.00,,,0.09,Wunderground v.1.15,2013-05-25 00:42:00,
2013-05-24 19:47:00,60.8,51.7,30.08,ESE,119,12.0,15.0,72,0.00,,,0.09,Wunderground v.1.15,2013-05-25 00:47:00,
2013-05-24 19:52:00,60.8,51.7,30.08,ESE,115,9.0,12.0,72,0.00,,,0.09,Wunderground v.1.15,2013-05-25 00:52:00,
2013-05-24 19:57:00,60.8,51.7,30.07,ESE,113,10.0,13.0,72,0.00,,,0.09,Wunderground v.1.15,2013-05-25 00:57:00,
2013-05-24 20:02:00,60.8,51.3,30.08,ESE,114,10.0,14.0,71,0.00,,,0.09,Wunderground v.1.15,2013-05-25 01:02:00,
2013-05-24 20:07:00,60.9,51.4,30.08,ESE,119,11.0,15.0,71,0.00,,,0.09,Wunderground v.1.15,2013-05-25 01:07:00,
2013-05-24 20:12:00,60.7,51.6,30.07,SE,128,9.0,14.0,72,0.00,,,0.09,Wunderground v.1.15,2013-05-25 01:12:00,
2013-05-24 20:17:00,60.5,51.8,30.07,SE,126,10.0,14.0,73,0.00,,,0.09,Wunderground v.1.15,2013-05-25 01:17:00,
2013-05-24 20:22:00,60.7,51.6,30.07,SE,130,13.0,15.0,72,0.00,,,0.09,Wunderground v.1.15,2013-05-25 01:22:00,
2013-05-24 20:27:00,60.6,51.9,30.06,SE,130,12.0,15.0,73,0.00,,,0.09,Wunderground v.1.15,2013-05-25 01:27:00,
2013-05-24 20:32:00,60.5,51.8,30.07,SE,130,9.0,15.0,73,0.00,,,0.09,Wunderground v.1.15,2013-05-25 01:32:00,
2013-05-24 20:37:00,60.5,51.8,30.06,SE,138,11.0,16.0,73,0.00,,,0.09,Wunderground v.1.15,2013-05-25 01:37:00,
2013-05-24 20:42:00,60.7,51.6,30.07,SE,145,12.0,15.0,72,0.00,,,0.09,Wunderground v.1.15,2013-05-25 01:42:00,
2013-05-24 20:47:00,60.8,51.3,30.07,SE,143,12.0,16.0,71,0.00,,,0.09,Wunderground v.1.15,2013-05-25 01:47:00,
2013-05-24 20:52:00,60.8,51.3,30.07,SE,144,8.0,16.0,71,0.00,,,0.09,Wunderground v.1.15,2013-05-25 01:52:00,
2013-05-24 20:57:00,60.7,50.9,30.07,SSE,150,17.0,17.0,70,0.00,,,0.09,Wunderground v.1.15,2013-05-25 01:57:00,
2013-05-24 21:02:00,60.7,50.9,30.08,SE,145,8.0,16.0,70,0.00,,,0.09,Wunderground v.1.15,2013-05-25 02:02:00,
2013-05-24 21:07:00,60.7,50.9,30.08,SE,141,8.0,16.0,70,0.00,,,0.09,Wunderground v.1.15,2013-05-25 02:07:00,
2013-05-24 21:13:00,60.7,50.5,30.08,SE,144,8.0,16.0,69,0.00,,,0.09,Wunderground v.1.15,2013-05-25 02:13:00,
2013-05-24 21:18:00,60.7,50.5,30.08,SE,142,12.0,17.0,69,0.00,,,0.09,Wunderground v.1.15,2013-05-25 02:18:00,
2013-05-24 21:23:00,60.6,50.8,30.08,SSE,156,8.0,14.0,70,0.00,,,0.09,Wunderground v.1.15,2013-05-25 02:23:00,
2013-05-24 21:28:00,60.5,50.3,30.09,SE,137,12.0,14.0,69,0.00,,,0.09,Wunderground v.1.15,2013-05-25 02:28:00,
2013-05-24 21:33:00,60.5,50.3,30.08,SE,144,13.0,18.0,69,0.00,,,0.09,Wunderground v.1.15,2013-05-25 02:33:00,
2013-05-24 21:38:00,60.5,49.9,30.08,SE,146,17.0,18.0,68,0.00,,,0.09,Wunderground v.1.15,2013-05-25 02:38:00,
2013-05-24 21:43:00,60.5,49.9,30.09,SSE,148,12.0,15.0,68,0.00,,,0.09,Wunderground v.1.15,2013-05-25 02:43:00,
2013-05-24 21:48:00,60.5,49.9,30.09,SE,137,8.0,22.0,68,0.00,,,0.09,Wunderground v.1.15,2013-05-25 02:48:00,
2013-05-24 21:53:00,60.3,50.1,30.09,SSE,150,15.0,16.0,69,0.00,,,0.09,Wunderground v.1.15,2013-05-25 02:53:00,
2013-05-24 21:58:00,60.2,50.0,30.08,SE,144,7.0,17.0,69,0.00,,,0.09,Wunderground v.1.15,2013-05-25 02:58:00,
2013-05-24 22:03:00,60.0,49.8,30.09,SE,141,7.0,17.0,69,0.00,,,0.09,Wunderground v.1.15,2013-05-25 03:03:00,
2013-05-24 22:08:00,59.8,50.0,30.09,SE,146,15.0,18.0,70,0.00,,,0.09,Wunderground v.1.15,2013-05-25 03:08:00,
2013-05-24 22:13:00,59.5,50.1,30.10,SE,140,9.0,17.0,71,0.00,,,0.09,Wunderground v.1.15,2013-05-25 03:13:00,
2013-05-24 22:18:00,59.7,49.9,30.09,SE,142,10.0,20.0,70,0.00,,,0.09,Wunderground v.1.15,2013-05-25 03:18:00,
2013-05-24 22:23:00,59.6,49.8,30.09,SE,145,14.0,16.0,70,0.00,,,0.09,Wunderground v.1.15,2013-05-25 03:23:00,
2013-05-24 22:28:00,59.6,49.8,30.08,SE,140,20.0,20.0,70,0.00,,,0.09,Wunderground v.1.15,2013-05-25 03:28:00,
2013-05-24 22:33:00,59.6,49.4,30.08,SE,142,11.0,23.0,69,0.00,,,0.09,Wunderground v.1.15,2013-05-25 03:33:00,
2013-05-24 22:38:00,59.5,49.3,30.08,SE,145,10.0,23.0,69,0.00,,,0.09,Wunderground v.1.15,2013-05-25 03:38:00,
2013-05-24 22:43:00,59.4,49.2,30.08,SE,137,10.0,19.0,69,0.00,,,0.09,Wunderground v.1.15,2013-05-25 03:43:00,
2013-05-24 22:48:00,59.3,49.1,30.08,SE,135,8.0,19.0,69,0.00,,,0.09,Wunderground v.1.15,2013-05-25 03:48:00,
2013-05-24 22:53:00,59.4,49.2,30.08,SE,134,16.0,18.0,69,0.00,,,0.09,Wunderground v.1.15,2013-05-25 03:53:00,
2013-05-24 22:58:00,59.3,49.1,30.08,SSE,152,19.0,20.0,69,0.00,,,0.09,Wunderground v.1.15,2013-05-25 03:58:00,
2013-05-24 23:01:00,59.3,49.1,30.08,SSE,165,16.0,19.0,69,0.00,,,0.09,Wunderground v.1.15,2013-05-25 04:01:00,
2013-05-24 23:02:00,59.3,49.1,30.09,SE,140,16.0,19.0,69,0.00,,,0.09,Wunderground v.1.15,2013-05-25 04:02:00,
2013-05-24 23:07:00,59.4,48.8,30.08,SSE,152,17.0,21.0,68,0.00,,,0.09,Wunderground v.1.15,2013-05-25 04:07:00,
2013-05-24 23:12:00,59.2,48.6,30.07,SE,140,15.0,24.0,68,0.00,,,0.09,Wunderground v.1.15,2013-05-25 04:12:00,
2013-05-24 23:17:00,59.0,48.8,30.07,SE,134,17.0,24.0,69,0.00,,,0.09,Wunderground v.1.15,2013-05-25 04:17:00,
2013-05-24 23:22:00,59.0,48.8,30.08,SSE,149,12.0,17.0,69,0.00,,,0.09,Wunderground v.1.15,2013-05-25 04:22:00,
2013-05-24 23:27:00,59.0,49.2,30.08,SE,136,14.0,19.0,70,0.00,,,0.09,Wunderground v.1.15,2013-05-25 04:27:00,
2013-05-24 23:32:00,59.0,49.2,30.09,SE,144,13.0,19.0,70,0.00,,,0.09,Wunderground v.1.15,2013-05-25 04:32:00,
2013-05-24 23:37:00,58.8,49.4,30.09,SE,136,11.0,19.0,71,0.00,,,0.09,Wunderground v.1.15,2013-05-25 04:37:00,
2013-05-24 23:42:00,58.8,49.0,30.09,SSE,155,16.0,17.0,70,0.00,,,0.09,Wunderground v.1.15,2013-05-25 04:42:00,
2013-05-24 23:47:00,58.8,49.4,30.09,SSE,148,12.0,17.0,71,0.00,,,0.09,Wunderground v.1.15,2013-05-25 04:47:00,
2013-05-24 23:52:00,58.6,49.2,30.09,SSE,148,5.0,17.0,71,0.00,,,0.09,Wunderground v.1.15,2013-05-25 04:52:00,
2013-05-24 23:57:00,58.6,49.2,30.09,SE,146,9.0,17.0,71,0.00,,,0.09,Wunderground v.1.15,2013-05-25 04:57:00,